Weather History for Greensboro, NC

Change the Weather History Date:

Sunday, September 2, 2012

  Actual Average Record
Temperature  
Mean Temperature 81 °F 75 °F  
Max Temperature 91 °F 84 °F 101 °F (1921)
Min Temperature 71 °F 65 °F 48 °F (1948)
Degree Days  
Heating Degree Days 0 0  
Month to date heating degree days 0 0  
Since 1 July heating degree days 0 1  
Cooling Degree Days 16 10  
Month to date cooling degree days 34 20  
Year to date cooling degree days 1453 1282  
Growing Degree Days 31 (Base 50)    
Moisture  
Dew Point 71 °F    
Average Humidity 73    
Maximum Humidity 94    
Minimum Humidity 52    
Precipitation  
Precipitation 0.37 in 0.15 in 1.01 in (1945)
Month to date precipitation 0.39 0.30  
Year to date precipitation 27.13 29.09  
Sea Level Pressure  
Sea Level Pressure 30.00 in    
Wind  
Wind Speed 4 mph (SSW)    
Max Wind Speed 31 mph    
Max Gust Speed 36 mph    
Visibility 9 miles    
Events Rain , Thunderstorm    
T = Trace of Precipitation, MM = Missing Value Source: NWS Daily Summary

Daily Weather History Graph

Daily Weather History Graph

Search for Another Location

Airport:

Trip Planner

Search our weather history database for the weather conditions in past years. The results will help you decide how hot, cold, wet, or windy it might be!

Date:

Astronomy

Sep. 02, 2012 Rise Set
Actual Time 6:52 AM EDT 7:45 PM EDT
Civil Twilight 6:26 AM EDT 8:11 PM EDT
Nautical Twilight 5:55 AM EDT 8:42 PM EDT
Astronomical Twilight 5:23 AM EDT 9:14 PM EDT
Moon 8:38 PM EDT (9/2) 8:53 AM EDT (9/2)
Length of Visible Light 13h 45m
Length of Day
12h 52m
Waning Gibbous, 95% of the Moon is Illuminated
Sep 2
Waning Gibbous
Sep 8
Last Quarter
Sep 15
New
Sep 22
First Quarter
Sep 29
Full

Hourly Weather History & Observations

Time (EDT) Temp. Heat Index Dew Point Humidity Pressure Visibility Wind Dir Wind Speed Gust Speed Precip Events Conditions
12:54 AM 75.9 °F - 73.0 °F 91% 30.05 in 10.0 mi Calm Calm - N/A   Partly Cloudy
1:54 AM 75.0 °F - 73.0 °F 94% 30.03 in 10.0 mi Calm Calm - N/A   Partly Cloudy
2:54 AM 75.0 °F - 73.0 °F 94% 30.03 in 5.0 mi Calm Calm - N/A   Clear
3:54 AM 75.0 °F - 72.0 °F 90% 30.02 in 10.0 mi Calm Calm - N/A   Clear
4:54 AM 75.0 °F - 73.0 °F 94% 30.01 in 9.0 mi Calm Calm - N/A   Clear
5:54 AM 75.0 °F - 73.0 °F 94% 30.01 in 9.0 mi Calm Calm - N/A   Clear
6:54 AM 75.0 °F - 72.0 °F 90% 30.02 in 10.0 mi Calm Calm - N/A   Clear
7:54 AM 75.0 °F - 72.0 °F 90% 30.03 in 10.0 mi Calm Calm - N/A   Clear
8:54 AM 77.0 °F - 72.0 °F 84% 30.03 in 10.0 mi Calm Calm - N/A   Clear
9:54 AM 80.1 °F 84.2 °F 73.0 °F 79% 30.04 in 10.0 mi SW 3.5 mph - N/A   Mostly Cloudy
10:54 AM 82.9 °F 87.0 °F 70.0 °F 65% 30.03 in 10.0 mi SSW 6.9 mph - N/A   Mostly Cloudy
11:54 AM 84.0 °F 89.6 °F 72.0 °F 67% 30.03 in 10.0 mi West 5.8 mph - N/A   Clear
12:54 PM 87.1 °F 92.8 °F 71.1 °F 59% 30.00 in 10.0 mi SSW 5.8 mph - N/A   Clear
1:54 PM 88.0 °F 93.8 °F 71.1 °F 57% 29.97 in 10.0 mi SW 8.1 mph - N/A   Clear
2:54 PM 90.0 °F 94.5 °F 69.1 °F 50% 29.95 in 10.0 mi WSW 9.2 mph - N/A   Clear
3:54 PM 90.0 °F 94.5 °F 69.1 °F 50% 29.93 in 10.0 mi WSW 10.4 mph - N/A   Partly Cloudy
4:54 PM 89.1 °F 93.7 °F 69.1 °F 52% 29.91 in 10.0 mi West 5.8 mph - N/A   Mostly Cloudy
5:54 PM 82.9 °F 87.0 °F 70.0 °F 65% 29.92 in 10.0 mi SSE 6.9 mph - N/A   Scattered Clouds
6:54 PM 82.9 °F 87.5 °F 71.1 °F 67% 29.93 in 10.0 mi SSE 6.9 mph - N/A   Mostly Cloudy
7:06 PM 80.6 °F 83.9 °F 69.8 °F 70% 29.97 in 10.0 mi WNW 23.0 mph 26.5 mph N/A Thunderstorm Thunderstorm
7:18 PM 75.2 °F - 69.8 °F 83% 30.00 in 10.0 mi WNW 23.0 mph 35.7 mph 0.00 in Rain , Thunderstorm Light Thunderstorms and Rain
7:29 PM 73.4 °F - 71.6 °F 94% 30.00 in 1.8 mi West 12.7 mph 29.9 mph 0.08 in Rain , Thunderstorm Heavy Thunderstorms and Rain
7:38 PM 73.4 °F - 71.6 °F 94% 30.00 in 2.0 mi WNW 6.9 mph - 0.26 in Rain , Thunderstorm Heavy Thunderstorms and Rain
7:54 PM 73.0 °F - 71.1 °F 93% 29.99 in 7.0 mi Calm Calm - 0.28 in Rain , Thunderstorm Light Thunderstorms and Rain
8:54 PM 73.0 °F - 71.1 °F 93% 29.98 in 10.0 mi Calm Calm - 0.07 in Rain Light Rain
9:54 PM 73.0 °F - 71.1 °F 93% 30.00 in 10.0 mi East 4.6 mph - 0.02 in   Mostly Cloudy
10:11 PM 73.4 °F - 71.6 °F 94% 30.03 in 10.0 mi East 8.1 mph - 0.00 in   Mostly Cloudy
10:18 PM 73.4 °F - 71.6 °F 94% 30.03 in 10.0 mi East 8.1 mph - 0.00 in   Mostly Cloudy
10:28 PM 71.6 °F - 71.6 °F 100% 30.03 in 10.0 mi East 6.9 mph - 0.00 in   Mostly Cloudy
10:54 PM 72.0 °F - 70.0 °F 93% 30.00 in 10.0 mi East 6.9 mph - 0.00 in   Mostly Cloudy
11:54 PM 71.1 °F - 69.1 °F 93% 30.00 in 10.0 mi SE 6.9 mph - N/A   Scattered Clouds